Berlin, NH

6:03 AM EST on January 18, 2018 (GMT -0500)
Berlin Municipal

Weather History for KBML - January, 2005

Change the Weather History Date:

Thursday, January 6, 2005

  Actual Average Record
Temperature  
Mean Temperature 18 °F -  
Max Temperature 27 °F 23 °F 61 °F (2007)
Min Temperature 9 °F 3 °F -23 °F (1999)
Degree Days  
Heating Degree Days 47    
Moisture  
Dew Point 12 °F    
Average Humidity 77    
Maximum Humidity 92    
Minimum Humidity 62    
Precipitation  
Precipitation 0.11 in - - ()
Sea Level Pressure  
Sea Level Pressure 29.97 in    
Wind  
Wind Speed 5 mph (NNE)    
Max Wind Speed 21 mph    
Max Gust Speed 24 mph    
Visibility 6 miles    
Events Snow    
Averages and records for this station are not official NWS values.
T = Trace of Precipitation, MM = Missing Value Source: NWS Daily Summary

Daily Weather History Graph

Daily Weather History Graph

Search for Another Location

Airport or City:

Trip Planner

Search our weather history database for the weather conditions in past years. The results will help you decide how hot, cold, wet, or windy it might be!

Date:

Astronomy

Jan. 06, 2005 Rise Set
Actual Time 7:21 AM EST 4:20 PM EST
Civil Twilight 6:48 AM EST 4:53 PM EST
Nautical Twilight 6:11 AM EST 5:30 PM EST
Astronomical Twilight 5:36 AM EST 6:05 PM EST
Moon 3:02 AM EST (1/6) 12:33 PM EST (1/6)
Length of Visible Light 10h 05m
Length of Day
8h 59m
Waning Crescent, 20% of the Moon is Illuminated
Jan 6
Waning Crescent
Jan 10
New
Jan 17
First Quarter
Jan 25
Full
Feb 2
Last Quarter

Hourly Weather History & Observations

Time (EST) Temp. Windchill Dew Point Humidity Pressure Visibility Wind Dir Wind Speed Gust Speed Precip Events Conditions
12:52 AM 10.0 °F - 3.0 °F 73% 30.24 in 10.0 mi Calm Calm - N/A   Clear
1:52 AM 9.0 °F 0.6 °F -0.0 °F 67% 30.23 in 10.0 mi NNW 4.6 mph - N/A   Clear
2:52 AM 9.0 °F 2.4 °F -0.0 °F 67% 30.23 in 10.0 mi NNW 3.5 mph - N/A   Clear
3:52 AM 10.0 °F - -0.0 °F 64% 30.22 in 10.0 mi Calm Calm - N/A   Clear
4:52 AM 10.0 °F 3.6 °F 1.0 °F 67% 30.20 in 10.0 mi North 3.5 mph - N/A   Mostly Cloudy
5:52 AM 10.9 °F - 1.9 °F 67% 30.20 in 10.0 mi Calm Calm - N/A   Mostly Cloudy
6:52 AM 10.9 °F - 1.9 °F 67% 30.19 in 10.0 mi Calm Calm - N/A   Overcast
7:52 AM 10.9 °F 1.4 °F 3.0 °F 70% 30.19 in 10.0 mi North 5.8 mph - N/A   Overcast
9:52 AM 14.0 °F 6.5 °F 3.9 °F 64% 30.18 in 10.0 mi NW 4.6 mph - N/A   Clear
10:52 AM 16.0 °F 8.8 °F 5.0 °F 62% 30.14 in 10.0 mi NW 4.6 mph - N/A   Clear
11:52 AM 17.1 °F - 6.1 °F 62% 30.08 in 10.0 mi Calm Calm - N/A   Scattered Clouds
12:52 PM 18.0 °F 12.7 °F 8.1 °F 65% 30.03 in 2.5 mi NNW 3.5 mph - 0.00 in Snow Light Snow
12:57 PM 17.6 °F 12.3 °F 8.6 °F 68% 29.95 in 1.2 mi NW 3.5 mph - 0.00 in Snow Light Snow
1:12 PM 17.6 °F 12.3 °F 10.4 °F 73% 29.95 in 1.0 mi NNW 3.5 mph - 0.00 in Snow Light Snow
1:21 PM 17.6 °F 10.7 °F 12.2 °F 79% 29.94 in 0.8 mi NNW 4.6 mph - 0.00 in Snow Light Snow
1:59 PM 15.8 °F 7.2 °F 12.2 °F 86% 29.93 in 1.0 mi NNW 5.8 mph - 0.01 in Snow Light Snow
2:06 PM 15.8 °F 7.2 °F 12.2 °F 86% 29.92 in 0.8 mi NNW 5.8 mph - 0.01 in Snow Light Snow
2:52 PM 16.0 °F 10.4 °F 14.0 °F 92% 29.97 in 0.8 mi NNW 3.5 mph - 0.05 in Snow Light Snow
3:52 PM 19.9 °F 9.3 °F 17.1 °F 89% 29.94 in 0.8 mi SE 9.2 mph - 0.04 in Snow Light Snow
4:21 PM 19.4 °F 3.6 °F 15.8 °F 86% 29.85 in 1.5 mi SE 19.6 mph 24.2 mph 0.00 in Snow Light Snow
4:30 PM 21.2 °F 7.3 °F 15.8 °F 80% 29.85 in 2.0 mi SSE 16.1 mph - 0.00 in Snow Light Snow
4:40 PM 21.2 °F 5.6 °F 15.8 °F 80% 29.84 in 3.0 mi SSE 20.7 mph - 0.00 in Snow Light Snow
4:52 PM 21.0 °F 7.1 °F 16.0 °F 81% 29.91 in 2.5 mi SSE 16.1 mph 23.0 mph 0.00 in Snow Light Snow
5:25 PM 21.2 °F 7.3 °F 17.6 °F 86% 29.81 in 3.0 mi SSE 16.1 mph 23.0 mph 0.00 in Snow Light Snow
5:44 PM 21.2 °F 8.3 °F 17.6 °F 86% 29.80 in 2.5 mi SSE 13.8 mph 19.6 mph 0.00 in Snow Light Snow
5:52 PM 21.9 °F 9.8 °F 18.0 °F 85% 29.86 in 2.5 mi SSE 12.7 mph - 0.00 in Snow Light Snow
6:06 PM 23.0 °F 13.1 °F 17.6 °F 80% 29.79 in 1.2 mi South 9.2 mph - 0.01 in Snow Light Snow
6:19 PM 23.0 °F 11.1 °F 19.4 °F 86% 29.79 in 1.0 mi SSE 12.7 mph 18.4 mph 0.01 in Snow Light Snow
6:38 PM 23.0 °F 10.1 °F 17.6 °F 80% 29.79 in 5.0 mi SSE 15.0 mph 19.6 mph 0.02 in Snow Light Snow
6:52 PM 24.1 °F 12.0 °F 18.0 °F 77% 29.85 in 5.0 mi SSE 13.8 mph 21.9 mph 0.02 in Snow Light Snow
7:52 PM 26.1 °F 16.2 °F 19.9 °F 78% 29.83 in 10.0 mi SE 10.4 mph - 0.00 in   Overcast
8:52 PM 27.0 °F 21.6 °F 21.0 °F 78% 29.80 in 10.0 mi SE 4.6 mph - N/A   Overcast
9:52 PM 23.0 °F 13.1 °F 19.0 °F 85% 29.79 in 10.0 mi NNW 9.2 mph - N/A   Overcast
10:52 PM 21.9 °F 15.7 °F 18.0 °F 85% 29.78 in 10.0 mi Variable 4.6 mph - N/A   Overcast
11:52 PM 21.9 °F 17.2 °F 19.0 °F 89% 29.76 in 10.0 mi NNW 3.5 mph - N/A   Overcast